Terminal Aerodrome Forecast
Issued by NWS Wakefield, VA

Home | Current Version | Previous Version | Text Only | Print | Product List | Glossary On
Versions: 1 2 3 4 5 6 7 8 9 10 11 12
000
FTUS41 KAKQ 191700 RRA
TAFECG
TAF
KECG 191741Z 1918/2018 07009KT P6SM SCT035
     FM200600 06005KT P6SM FEW020
     FM201000 05007KT P6SM BKN020=

USA.gov is the U.S. government's official web portal to all federal, state and local government web resources and services.